ANA1004 RJTT-RJOK

Flight info

Callsign ANA1004
Flight time 1h 7m
Altitude 36000
Route LAXAS Y56 TOHME Y54 KOHWA Y12 KEC Y24 TURFY Y242 PANCH
Aircraft A320/M-SDE3FGHIRWY/LB1

Departure

Time 2026-04-15 15:46
Airport Tokyo Haneda International Airport (RJTT)

Arrival

Time 2026-04-15 16:54
Airport Kochi Ryoma Airport (RJOK)
Time Latitude Longitude Altitude Speed Heading
2026-04-15 15:18 35.54983 139.79303 24 ft 0 kts 161°
2026-04-15 15:38 35.54999 139.79296 26 ft 4 kts 159°
2026-04-15 15:38 35.55024 139.79283 25 ft 4 kts 151°
2026-04-15 15:39 35.55045 139.79264 26 ft 4 kts 122°
2026-04-15 15:39 35.55050 139.79244 25 ft 1 kts 60°
2026-04-15 15:39 35.55049 139.79244 25 ft 0 kts 60°
2026-04-15 15:42 35.55050 139.79246 25 ft 2 kts 60°
2026-04-15 15:42 35.55071 139.79291 25 ft 10 kts 60°
2026-04-15 15:42 35.55117 139.79392 23 ft 16 kts 70°
2026-04-15 15:42 35.55040 139.79500 25 ft 21 kts 149°
2026-04-15 15:43 35.54901 139.79598 23 ft 24 kts 150°
2026-04-15 15:43 35.54767 139.79693 25 ft 20 kts 149°
2026-04-15 15:43 35.54656 139.79772 23 ft 19 kts 150°
2026-04-15 15:43 35.54520 139.79868 24 ft 26 kts 150°
2026-04-15 15:44 35.54377 139.79969 25 ft 21 kts 150°
2026-04-15 15:44 35.54261 139.80051 24 ft 17 kts 150°
2026-04-15 15:44 35.54189 139.80132 23 ft 12 kts 95°
2026-04-15 15:44 35.54216 139.80207 23 ft 7 kts 61°
2026-04-15 15:45 35.54243 139.80265 24 ft 11 kts 59°
2026-04-15 15:45 35.54314 139.80267 24 ft 11 kts 330°
2026-04-15 15:45 35.54400 139.80206 24 ft 26 kts 330°
2026-04-15 15:45 35.54759 139.79951 24 ft 90 kts 330°
2026-04-15 15:46 35.55467 139.79452 26 ft 142 kts 330°
2026-04-15 15:46 35.56388 139.78807 437 ft 152 kts 330°
2026-04-15 15:46 35.57347 139.78204 1057 ft 158 kts 349°
2026-04-15 15:46 35.58406 139.78451 1617 ft 165 kts 37°
2026-04-15 15:47 35.59122 139.79676 1839 ft 200 kts 74°
2026-04-15 15:47 35.59013 139.81528 2115 ft 237 kts 102°
2026-04-15 15:47 35.58413 139.83518 2718 ft 256 kts 110°
2026-04-15 15:47 35.57663 139.85522 3611 ft 260 kts 113°
2026-04-15 15:48 35.56883 139.87547 4487 ft 264 kts 112°
2026-04-15 15:48 35.56113 139.89604 5315 ft 267 kts 111°
2026-04-15 15:48 35.55331 139.91701 6055 ft 274 kts 118°
2026-04-15 15:48 35.54104 139.93515 6736 ft 281 kts 142°
2026-04-15 15:49 35.52353 139.94607 7459 ft 286 kts 166°
2026-04-15 15:49 35.50368 139.94727 8220 ft 288 kts 190°
2026-04-15 15:49 35.48399 139.94267 9050 ft 289 kts 192°
2026-04-15 15:49 35.46476 139.93580 9866 ft 288 kts 205°
2026-04-15 15:50 35.44748 139.92348 10569 ft 291 kts 218°
2026-04-15 15:50 35.43225 139.90574 10750 ft 314 kts 228°
2026-04-15 15:50 35.41685 139.88507 11011 ft 332 kts 228°
2026-04-15 15:50 35.40110 139.86389 11642 ft 338 kts 228°
2026-04-15 15:51 35.38519 139.84254 12387 ft 341 kts 227°
2026-04-15 15:51 35.36909 139.82106 13180 ft 342 kts 227°
2026-04-15 15:51 35.35297 139.79967 13949 ft 343 kts 227°
2026-04-15 15:51 35.33671 139.77816 14612 ft 345 kts 227°
2026-04-15 15:52 35.32038 139.75652 15263 ft 347 kts 227°
2026-04-15 15:52 35.30291 139.73597 15852 ft 351 kts 222°
2026-04-15 15:52 35.28425 139.71642 16465 ft 354 kts 222°
2026-04-15 15:52 35.26548 139.69685 17088 ft 356 kts 222°
2026-04-15 15:53 35.24652 139.67711 17714 ft 359 kts 222°
2026-04-15 15:53 35.22744 139.65725 18307 ft 361 kts 222°
2026-04-15 15:53 35.20834 139.63735 18926 ft 361 kts 222°
2026-04-15 15:53 35.18915 139.61738 19511 ft 363 kts 222°
2026-04-15 15:54 35.16988 139.59732 20079 ft 366 kts 222°
2026-04-15 15:54 35.15042 139.57707 20652 ft 368 kts 222°
2026-04-15 15:54 35.13085 139.55673 21222 ft 371 kts 222°
2026-04-15 15:54 35.11114 139.53626 21707 ft 373 kts 222°
2026-04-15 15:55 35.09258 139.51411 22177 ft 374 kts 232°
2026-04-15 15:55 35.07798 139.48788 22638 ft 375 kts 242°
2026-04-15 15:55 35.06794 139.45836 23097 ft 378 kts 252°
2026-04-15 15:55 35.06222 139.42689 23545 ft 382 kts 257°
2026-04-15 15:56 35.05702 139.39506 23931 ft 383 kts 257°
2026-04-15 15:56 35.05172 139.36307 24317 ft 385 kts 257°
2026-04-15 15:56 35.04635 139.33101 24697 ft 387 kts 257°
2026-04-15 15:56 35.04091 139.29880 25082 ft 388 kts 257°
2026-04-15 15:57 35.03542 139.26641 25455 ft 390 kts 257°
2026-04-15 15:57 35.02993 139.23397 25831 ft 392 kts 257°
2026-04-15 15:57 35.02445 139.20140 26180 ft 393 kts 257°
2026-04-15 15:57 35.01896 139.16867 26519 ft 395 kts 257°
2026-04-15 15:58 35.01345 139.13582 26856 ft 396 kts 257°
2026-04-15 15:58 35.00790 139.10283 27189 ft 398 kts 257°
2026-04-15 15:58 35.00233 139.06972 27512 ft 400 kts 257°
2026-04-15 15:58 34.99670 139.03639 27811 ft 402 kts 257°
2026-04-15 15:59 34.99103 139.00297 28151 ft 403 kts 257°
2026-04-15 15:59 34.98703 138.96910 28492 ft 406 kts 264°
2026-04-15 15:59 34.98527 138.93472 28841 ft 407 kts 265°
2026-04-15 15:59 34.98349 138.90022 29122 ft 409 kts 265°
2026-04-15 16:00 34.98168 138.86556 29389 ft 410 kts 265°
2026-04-15 16:00 34.98049 138.84259 29591 ft 410 kts 265°
2026-04-15 16:00 34.97804 138.79611 29951 ft 412 kts 265°
2026-04-15 16:00 34.97618 138.76120 30178 ft 412 kts 265°
2026-04-15 16:01 34.97432 138.72636 30461 ft 411 kts 265°
2026-04-15 16:01 34.97249 138.69174 30774 ft 409 kts 265°
2026-04-15 16:01 34.97067 138.65722 31091 ft 407 kts 266°
2026-04-15 16:01 34.96882 138.62299 31424 ft 403 kts 266°
2026-04-15 16:02 34.96697 138.58906 31803 ft 399 kts 267°
2026-04-15 16:02 34.96511 138.55545 32144 ft 396 kts 267°
2026-04-15 16:02 34.96327 138.52206 32480 ft 394 kts 267°
2026-04-15 16:02 34.96145 138.48885 32832 ft 392 kts 267°
2026-04-15 16:03 34.95962 138.45578 33140 ft 390 kts 267°
2026-04-15 16:03 34.95781 138.42281 33465 ft 388 kts 268°
2026-04-15 16:03 34.95600 138.39020 33824 ft 384 kts 268°
2026-04-15 16:03 34.95419 138.35782 34119 ft 382 kts 268°
2026-04-15 16:04 34.95238 138.32555 34379 ft 380 kts 268°
2026-04-15 16:04 34.95056 138.29347 34622 ft 379 kts 268°
2026-04-15 16:04 34.94873 138.26143 34848 ft 379 kts 267°
2026-04-15 16:04 34.94687 138.22947 35057 ft 378 kts 267°
2026-04-15 16:05 34.94497 138.19754 35263 ft 376 kts 267°
2026-04-15 16:05 34.94309 138.16579 35460 ft 375 kts 268°
2026-04-15 16:05 34.94127 138.13411 35669 ft 375 kts 267°
2026-04-15 16:05 34.93944 138.10241 35806 ft 375 kts 267°
2026-04-15 16:06 34.93574 138.03920 35844 ft 374 kts 267°
2026-04-15 16:06 34.93195 137.97599 35846 ft 373 kts 267°
2026-04-15 16:07 34.92815 137.91297 35847 ft 373 kts 267°
2026-04-15 16:08 34.92246 137.81843 35855 ft 373 kts 267°
2026-04-15 16:08 34.91861 137.75546 35847 ft 373 kts 267°
2026-04-15 16:09 34.91458 137.69253 35856 ft 373 kts 265°
2026-04-15 16:09 34.90043 137.63149 35856 ft 377 kts 254°
2026-04-15 16:10 34.88545 137.58161 35851 ft 377 kts 254°
2026-04-15 16:10 34.86744 137.52155 35862 ft 377 kts 254°
2026-04-15 16:11 34.84933 137.46117 35863 ft 377 kts 255°
2026-04-15 16:11 34.83213 137.40143 35863 ft 376 kts 255°
2026-04-15 16:12 34.81507 137.34085 35851 ft 376 kts 255°
2026-04-15 16:12 34.79800 137.28081 35860 ft 375 kts 255°
2026-04-15 16:13 34.78079 137.22095 35861 ft 375 kts 255°
2026-04-15 16:13 34.76339 137.16107 35863 ft 375 kts 255°
2026-04-15 16:14 34.74609 137.10115 35882 ft 375 kts 255°
2026-04-15 16:14 34.72881 137.04134 35873 ft 375 kts 255°
2026-04-15 16:15 34.71026 136.98196 35870 ft 380 kts 248°
2026-04-15 16:15 34.67614 136.93143 35857 ft 401 kts 227°
2026-04-15 16:16 34.63171 136.89015 35831 ft 402 kts 226°
2026-04-15 16:16 34.58723 136.84907 35854 ft 402 kts 226°
2026-04-15 16:17 34.54275 136.80800 35866 ft 401 kts 226°
2026-04-15 16:17 34.49833 136.76703 35852 ft 400 kts 226°
2026-04-15 16:18 34.45402 136.72619 35862 ft 400 kts 227°
2026-04-15 16:18 34.40976 136.68538 35858 ft 400 kts 227°
2026-04-15 16:19 34.36535 136.64462 35858 ft 400 kts 226°
2026-04-15 16:19 34.32101 136.60399 35854 ft 400 kts 227°
2026-04-15 16:20 34.27673 136.56311 35840 ft 400 kts 227°
2026-04-15 16:20 34.23284 136.52184 35851 ft 400 kts 227°
2026-04-15 16:21 34.18905 136.48056 35864 ft 400 kts 227°
2026-04-15 16:21 34.14509 136.43939 35862 ft 400 kts 227°
2026-04-15 16:22 34.10102 136.39828 35871 ft 400 kts 227°
2026-04-15 16:22 34.05697 136.35715 35858 ft 400 kts 227°
2026-04-15 16:23 34.01299 136.31615 35828 ft 400 kts 228°
2026-04-15 16:23 33.96897 136.27524 35841 ft 399 kts 228°
2026-04-15 16:24 33.92498 136.23438 35854 ft 399 kts 228°
2026-04-15 16:24 33.88103 136.19358 35853 ft 399 kts 228°
2026-04-15 16:25 33.83708 136.15288 35841 ft 398 kts 228°
2026-04-15 16:25 33.79325 136.11228 35847 ft 398 kts 228°
2026-04-15 16:26 33.74938 136.07178 35851 ft 397 kts 228°
2026-04-15 16:26 33.70554 136.03135 35853 ft 397 kts 228°
2026-04-15 16:27 33.66173 135.99096 35830 ft 396 kts 229°
2026-04-15 16:27 33.61803 135.95074 35837 ft 395 kts 228°
2026-04-15 16:28 33.57438 135.91065 35847 ft 395 kts 229°
2026-04-15 16:28 33.53085 135.87066 35855 ft 394 kts 229°
2026-04-15 16:29 33.48733 135.83071 35856 ft 394 kts 229°
2026-04-15 16:29 33.46727 135.80912 35855 ft 381 kts 238°
2026-04-15 16:29 33.45138 135.78438 35855 ft 370 kts 246°
2026-04-15 16:30 33.43233 135.72877 35850 ft 358 kts 259°
2026-04-15 16:30 33.42570 135.70000 35733 ft 359 kts 259°
2026-04-15 16:30 33.41896 135.67126 35503 ft 359 kts 259°
2026-04-15 16:30 33.41213 135.64256 35265 ft 359 kts 259°
2026-04-15 16:31 33.40528 135.61383 35035 ft 359 kts 259°
2026-04-15 16:31 33.39843 135.58505 34802 ft 360 kts 259°
2026-04-15 16:31 33.39159 135.55618 34550 ft 360 kts 259°
2026-04-15 16:31 33.38477 135.52736 34318 ft 361 kts 259°
2026-04-15 16:32 33.37795 135.49847 34107 ft 361 kts 259°
2026-04-15 16:32 33.37112 135.46955 33881 ft 362 kts 259°
2026-04-15 16:32 33.36427 135.44056 33617 ft 363 kts 259°
2026-04-15 16:32 33.35716 135.41148 33355 ft 365 kts 258°
2026-04-15 16:33 33.34971 135.38239 33084 ft 367 kts 257°
2026-04-15 16:33 33.34203 135.35318 32827 ft 369 kts 257°
2026-04-15 16:33 33.33426 135.32380 32569 ft 371 kts 257°
2026-04-15 16:33 33.32646 135.29430 31739 ft 375 kts 257°
2026-04-15 16:34 33.31860 135.26442 30922 ft 377 kts 257°
2026-04-15 16:34 33.31077 135.23463 30305 ft 374 kts 257°
2026-04-15 16:34 33.30306 135.20504 29637 ft 372 kts 257°
2026-04-15 16:34 33.29541 135.17564 29005 ft 369 kts 257°
2026-04-15 16:35 33.28782 135.14646 28403 ft 365 kts 257°
2026-04-15 16:35 33.28031 135.11760 27808 ft 362 kts 257°
2026-04-15 16:35 33.27285 135.08899 27219 ft 360 kts 257°
2026-04-15 16:35 33.26539 135.06057 26660 ft 357 kts 257°
2026-04-15 16:36 33.25796 135.03234 26065 ft 355 kts 257°
2026-04-15 16:36 33.25057 135.00423 25499 ft 353 kts 257°
2026-04-15 16:36 33.24334 134.97629 24944 ft 351 kts 258°
2026-04-15 16:36 33.23649 134.94845 24416 ft 349 kts 258°
2026-04-15 16:37 33.22985 134.92064 23900 ft 347 kts 258°
2026-04-15 16:37 33.22331 134.89301 23375 ft 345 kts 258°
2026-04-15 16:37 33.21679 134.86553 22840 ft 343 kts 258°
2026-04-15 16:37 33.21027 134.83829 22361 ft 339 kts 258°
2026-04-15 16:38 33.20367 134.81099 21890 ft 336 kts 258°
2026-04-15 16:38 33.19726 134.78471 21438 ft 333 kts 258°
2026-04-15 16:38 33.19080 134.75826 20977 ft 330 kts 258°
2026-04-15 16:38 33.18438 134.73207 20521 ft 328 kts 257°
2026-04-15 16:39 33.17800 134.70602 20033 ft 326 kts 257°
2026-04-15 16:39 33.17159 134.67978 19584 ft 324 kts 257°
2026-04-15 16:39 33.16570 134.65425 19123 ft 322 kts 262°
2026-04-15 16:39 33.16335 134.62756 18647 ft 319 kts 272°
2026-04-15 16:40 33.16455 134.60154 18189 ft 318 kts 275°
2026-04-15 16:40 33.16598 134.57483 17655 ft 318 kts 275°
2026-04-15 16:40 33.16730 134.54890 17190 ft 317 kts 275°
2026-04-15 16:40 33.16862 134.52236 16711 ft 315 kts 275°
2026-04-15 16:41 33.16991 134.49627 16246 ft 315 kts 274°
2026-04-15 16:41 33.17119 134.47020 15784 ft 314 kts 275°
2026-04-15 16:41 33.17246 134.44417 15323 ft 314 kts 275°
2026-04-15 16:41 33.17373 134.41809 14865 ft 314 kts 274°
2026-04-15 16:42 33.17496 134.39205 14405 ft 315 kts 275°
2026-04-15 16:42 33.17621 134.36601 14002 ft 313 kts 275°
2026-04-15 16:42 33.17745 134.34015 13600 ft 311 kts 275°
2026-04-15 16:42 33.17867 134.31435 13112 ft 311 kts 275°
2026-04-15 16:43 33.17989 134.28863 12639 ft 310 kts 275°
2026-04-15 16:43 33.18110 134.26296 12168 ft 309 kts 274°
2026-04-15 16:43 33.18232 134.23738 11701 ft 309 kts 274°
2026-04-15 16:43 33.18353 134.21171 11216 ft 309 kts 274°
2026-04-15 16:44 33.18474 134.18609 10746 ft 310 kts 274°
2026-04-15 16:44 33.18532 134.17355 10525 ft 309 kts 274°
2026-04-15 16:44 33.18646 134.14841 10400 ft 298 kts 274°
2026-04-15 16:44 33.18754 134.12420 10259 ft 287 kts 274°
2026-04-15 16:45 33.19072 134.10107 10093 ft 279 kts 289°
2026-04-15 16:45 33.19937 134.08043 10044 ft 279 kts 306°
2026-04-15 16:45 33.20779 134.06878 9934 ft 281 kts 316°
2026-04-15 16:45 33.22752 134.04763 9254 ft 284 kts 319°
2026-04-15 16:46 33.24227 134.03223 8660 ft 280 kts 319°
2026-04-15 16:46 33.25695 134.01696 8021 ft 280 kts 320°
2026-04-15 16:46 33.27160 134.00173 7412 ft 278 kts 321°
2026-04-15 16:46 33.28119 133.99173 7033 ft 276 kts 320°
2026-04-15 16:47 33.29567 133.97662 6398 ft 276 kts 321°
2026-04-15 16:47 33.31012 133.96150 5762 ft 275 kts 321°
2026-04-15 16:47 33.32443 133.94647 5172 ft 273 kts 321°
2026-04-15 16:47 33.33855 133.93160 4662 ft 266 kts 322°
2026-04-15 16:48 33.35214 133.91723 4449 ft 255 kts 322°
2026-04-15 16:48 33.36510 133.90348 4320 ft 242 kts 322°
2026-04-15 16:48 33.37736 133.89048 4218 ft 229 kts 322°
2026-04-15 16:48 33.38901 133.87814 4113 ft 220 kts 322°
2026-04-15 16:49 33.40048 133.86604 4015 ft 219 kts 322°
2026-04-15 16:49 33.41186 133.85423 3764 ft 216 kts 320°
2026-04-15 16:49 33.42241 133.84143 3466 ft 216 kts 315°
2026-04-15 16:49 33.43234 133.82795 3176 ft 213 kts 314°
2026-04-15 16:50 33.44172 133.81488 2896 ft 200 kts 315°
2026-04-15 16:50 33.45058 133.80252 2649 ft 190 kts 315°
2026-04-15 16:50 33.45888 133.79096 2403 ft 177 kts 314°
2026-04-15 16:50 33.46663 133.78016 2160 ft 166 kts 314°
2026-04-15 16:51 33.47388 133.77006 1938 ft 153 kts 314°
2026-04-15 16:51 33.48045 133.76090 1755 ft 140 kts 314°
2026-04-15 16:51 33.48665 133.75227 1574 ft 134 kts 314°
2026-04-15 16:51 33.49273 133.74381 1388 ft 134 kts 314°
2026-04-15 16:52 33.49881 133.73534 1216 ft 134 kts 312°
2026-04-15 16:52 33.50487 133.72688 1036 ft 135 kts 312°
2026-04-15 16:52 33.51099 133.71835 862 ft 136 kts 312°
2026-04-15 16:52 33.51710 133.70979 664 ft 134 kts 311°
2026-04-15 16:53 33.52311 133.70137 513 ft 132 kts 311°
2026-04-15 16:53 33.52903 133.69305 340 ft 131 kts 312°
2026-04-15 16:53 33.53492 133.68480 168 ft 130 kts 314°
2026-04-15 16:53 33.54082 133.67666 30 ft 124 kts 313°
2026-04-15 16:54 33.54513 133.67072 32 ft 53 kts 310°
2026-04-15 16:54 33.54678 133.66840 34 ft 20 kts 310°
2026-04-15 16:54 33.54780 133.66770 35 ft 17 kts 28°
2026-04-15 16:54 33.54855 133.66878 35 ft 17 kts 89°
2026-04-15 16:55 33.54788 133.66991 33 ft 17 kts 130°
2026-04-15 16:55 33.54715 133.67095 33 ft 16 kts 130°
2026-04-15 16:55 33.54650 133.67195 33 ft 13 kts 100°
2026-04-15 16:55 33.54706 133.67268 33 ft 12 kts 41°
2026-04-15 16:56 33.54744 133.67307 32 ft 0 kts 41°
2026-04-15 16:56 33.54746 133.67309 32 ft 0 kts 42°
2026-04-15 16:56 33.54747 133.67310 32 ft 0 kts 42°